Dover AFB, DE

8:23 PM EST on January 22, 2017 (GMT -0500)
Dover Air Force Base

Weather History for KDOV - July, 2013

Change the Weather History Date:

Tuesday, July 16, 2013

  Actual Average Record
Temperature  
Mean Temperature 84 °F -  
Max Temperature 91 °F 88 °F 101 °F (1988)
Min Temperature 77 °F 68 °F 59 °F (1971)
Cooling Degree Days 19    
Growing Degree Days 34 (Base 50)    
Moisture  
Dew Point 74 °F    
Average Humidity 76    
Maximum Humidity 99    
Minimum Humidity 49    
Precipitation  
Precipitation 0.06 in - - ()
Sea Level Pressure  
Sea Level Pressure 30.17 in    
Wind  
Wind Speed 8 mph (WNW)    
Max Wind Speed 15 mph    
Max Gust Speed 18 mph    
Visibility 10 miles    
Events Rain    
Averages and records for this station are not official NWS values.
T = Trace of Precipitation, MM = Missing Value Source: NWS Daily Summary

Daily Weather History Graph

Daily Weather History Graph

Search for Another Location

Airport or City:

Trip Planner

Search our weather history database for the weather conditions in past years. The results will help you decide how hot, cold, wet, or windy it might be!

Date:

Astronomy

Jul. 16, 2013 Rise Set
Actual Time 5:49 AM EDT 8:26 PM EDT
Civil Twilight 5:17 AM EDT 8:57 PM EDT
Nautical Twilight 4:39 AM EDT 9:36 PM EDT
Astronomical Twilight 3:55 AM EDT 10:19 PM EDT
Moon 2:06 PM EDT (7/16) 12:16 AM EDT (7/16)
Length of Visible Light 15h 39m
Length of Day
14h 37m
First Quarter, 56% of the Moon is Illuminated
Jul 16
First Quarter
Jul 22
Full
Jul 29
Last Quarter
Aug 6
New
Aug 14
First Quarter

Hourly Weather History & Observations

Time (EDT) Temp. Heat Index Dew Point Humidity Pressure Visibility Wind Dir Wind Speed Gust Speed Precip Events Conditions
12:58 AM 81.9 °F 89.5 °F 76.5 °F 84% 30.18 in 10.0 mi WSW 4.6 mph - N/A   Mostly Cloudy
1:42 AM 82.4 °F 90.9 °F 77.0 °F 84% 30.17 in 6.0 mi West 6.9 mph 18.4 mph N/A Rain Light Rain
1:47 AM 82.4 °F 90.9 °F 77.0 °F 84% 30.16 in 4.0 mi WSW 6.9 mph 18.4 mph N/A Rain Light Rain
1:52 AM 82.4 °F 90.9 °F 77.0 °F 84% 30.16 in 5.0 mi WSW 8.1 mph - N/A Rain Rain
1:57 AM 80.6 °F 87.1 °F 77.0 °F 89% 30.16 in 10.0 mi WSW 6.9 mph - N/A Rain Light Rain
1:58 AM 81.5 °F 89.5 °F 77.5 °F 88% 30.17 in 10.0 mi WSW 6.9 mph - 0.06 in Rain Light Rain
2:16 AM 80.6 °F 88.1 °F 78.8 °F 94% 30.15 in 10.0 mi WSW 4.6 mph - N/A   Mostly Cloudy
2:58 AM 80.8 °F 88.2 °F 78.3 °F 92% 30.16 in 10.0 mi West 4.6 mph - 0.00 in   Mostly Cloudy
3:58 AM 80.2 °F 86.6 °F 77.7 °F 92% 30.16 in 10.0 mi WNW 4.6 mph - N/A   Clear
4:58 AM 79.3 °F - 77.4 °F 94% 30.17 in 10.0 mi WNW 2.3 mph - N/A   Clear
5:58 AM 77.4 °F - 77.0 °F 99% 30.18 in 10.0 mi NW 4.6 mph - N/A   Clear
6:58 AM 78.8 °F - 77.5 °F 96% 30.19 in 10.0 mi NNW 3.5 mph - N/A   Clear
7:58 AM 81.3 °F 89.0 °F 77.5 °F 88% 30.20 in 10.0 mi North 8.1 mph - N/A   Clear
8:58 AM 83.1 °F 89.8 °F 73.9 °F 74% 30.20 in 10.0 mi North 12.7 mph - N/A   Clear
9:58 AM 84.7 °F 91.0 °F 72.9 °F 67% 30.20 in 10.0 mi NNW 12.7 mph - N/A   Clear
10:58 AM 85.8 °F 91.8 °F 72.1 °F 63% 30.20 in 10.0 mi North 12.7 mph - N/A   Clear
11:58 AM 87.4 °F 94.0 °F 72.0 °F 60% 30.20 in 10.0 mi NNW 12.7 mph - N/A   Clear
12:10 PM 87.8 °F 95.6 °F 73.4 °F 62% 30.19 in 10.0 mi NNW 12.7 mph - N/A   Clear
12:15 PM 87.8 °F 93.8 °F 71.6 °F 58% 30.19 in 10.0 mi NNW 13.8 mph - N/A   Light Drizzle
12:58 PM 88.9 °F 94.7 °F 71.1 °F 55% 30.20 in 10.0 mi NNW 13.8 mph - N/A   Clear
1:58 PM 90.0 °F 95.9 °F 70.7 °F 53% 30.18 in 10.0 mi NNW 15.0 mph - N/A   Clear
2:58 PM 91.0 °F 97.1 °F 70.5 °F 51% 30.17 in 10.0 mi NNW 15.0 mph - N/A   Clear
3:58 PM 91.8 °F 98.6 °F 71.2 °F 51% 30.16 in 10.0 mi NNW 15.0 mph - N/A   Clear
4:58 PM 91.4 °F 96.8 °F 69.8 °F 49% 30.15 in 10.0 mi NNW 15.0 mph - N/A   Clear
5:58 PM 90.5 °F 95.5 °F 69.8 °F 50% 30.14 in 10.0 mi North 10.4 mph - N/A   Clear
6:58 PM 86.7 °F 95.9 °F 75.2 °F 68% 30.15 in 10.0 mi ESE 6.9 mph - N/A   Partly Cloudy
7:58 PM 81.0 °F 86.3 °F 74.1 °F 80% 30.16 in 10.0 mi ESE 4.6 mph - N/A   Partly Cloudy
8:58 PM 79.2 °F - 71.1 °F 76% 30.17 in 10.0 mi SSE 4.6 mph - N/A   Partly Cloudy
9:47 PM 78.8 °F - 73.4 °F 83% 30.17 in 10.0 mi South 4.6 mph - N/A Rain Light Rain
9:51 PM 78.8 °F - 71.6 °F 78% 30.17 in 10.0 mi SSE 5.8 mph - N/A   Scattered Clouds
9:58 PM 78.8 °F - 72.5 °F 81% 30.18 in 10.0 mi SSE 5.8 mph - 0.00 in   Scattered Clouds
10:58 PM 78.6 °F - 72.3 °F 81% 30.18 in 10.0 mi SSE 5.8 mph - N/A   Clear
11:58 PM 77.4 °F - 73.8 °F 89% 30.18 in 10.0 mi SSW 5.8 mph - N/A   Clear